Meteo Giornale » Osservazioni meteo Stati Uniti (USA) » Brookhaven Lab

ore: 11:55 - Osservazioni Meteo Brookhaven Lab
Lat. 40° 48' N Lon. 73° 18' W Alt. 20 metri s.l.m.

coperto America/New_York

27 °C

Coperto

Temp. 24 Ore

21 °C

27 °C

Nord

0 Km/h

Dew point 23 °C

Umidità 78 %

Visibilità  10 Km

Il sole sorge alle ore 06:34

Il sole tramonta alle ore 19:00

Data e Ora Cielo e Fenomeni T °C DP °C Um. % Pres. hPa Vis. km Vento km/h
Oggi h: 11:55 coperto Coperto 27 23 78 1021 10 N 0
Oggi h: 11:35 coperto Coperto 27 23 78 1021 10 N 5.5
Oggi h: 11:15 coperto Coperto 26 23 83 1021 10 N 0
Oggi h: 10:55 coperto Coperto 26 23 83 1021 10 E/NE 7.4
Oggi h: 10:35 coperto Coperto 25 23 88 1021 10 N 0
Oggi h: 09:55 molto_nuvoloso Molto Nuvoloso 24 22 88 1020 10 N/NE 7.4
Oggi h: 09:35 sereno Sereno 24 22 88 1020 10 N/NE 7.4
Oggi h: 09:15 poco_nuvoloso Poco Nuvoloso 23 22 94 1020 10 N 0
Oggi h: 08:55 poco_nuvoloso Poco Nuvoloso 22 21 94 1020 10 N 0
Oggi h: 08:35 sereno Sereno 22 21 94 1020 10 N 0
Oggi h: 07:55 nuvoloso Nuvoloso 21 21 100 1019 10 N 0
Oggi h: 07:35 coperto Coperto 22 21 94 1019 10 N 0
Oggi h: 07:15 coperto Coperto 22 21 94 1019 10 N 0
Oggi h: 06:55 coperto Coperto 22 21 94 1019 10 N 0
Oggi h: 06:35 coperto Coperto 22 21 94 1019 10 N 0
Oggi h: 05:55 coperto Coperto 22 21 94 1018 10 N 0
Oggi h: 05:35 coperto Coperto 21 21 100 1018 10 N 0
Oggi h: 04:55 coperto Coperto 21 21 100 1018 10 N 0
Oggi h: 04:35 coperto Coperto 21 21 100 1018 10 N 0
Oggi h: 04:15 coperto Coperto 21 21 100 1018 10 N 0
Oggi h: 03:55 coperto Coperto 21 21 100 1018 10 N 0
Oggi h: 03:35 coperto Coperto 21 21 100 1018 10 N 0
Oggi h: 03:15 coperto Coperto 21 21 100 1018 10 N/NE 7.4
Oggi h: 02:55 coperto Coperto 21 21 100 1018 10 N 5.5
Oggi h: 02:35 coperto Coperto 21 21 100 1019 10 N 0
Oggi h: 01:55 coperto Coperto 21 21 100 1019 10 N 0
Oggi h: 01:35 coperto Coperto 21 21 100 1019 10 N 0
Oggi h: 01:15 coperto Coperto 21 20 94 1019 10 N 0
Oggi h: 00:55 molto_nuvoloso Molto Nuvoloso 21 21 100 1019 10 N 0
Oggi h: 00:35 molto_nuvoloso Molto Nuvoloso 21 21 100 1019 10 N 0
Oggi h: 00:15 nuvoloso Nuvoloso 21 21 100 1019 10 N 0
Ieri h: 23:55 nuvoloso Nuvoloso 21 21 100 1019 10 N 0
Ieri h: 23:35 poco_nuvoloso Poco Nuvoloso 21 21 100 1019 10 N 0
Ieri h: 23:15 nuvoloso Nuvoloso 21 20 94 1019 10 N 0
Ieri h: 22:55 poco_nuvoloso Poco Nuvoloso 21 21 100 1019 10 N 0
Ieri h: 22:35 molto_nuvoloso Molto Nuvoloso 21 21 100 1019 10 N 0
Ieri h: 22:15 coperto Coperto 21 21 100 1019 10 N 0
Ieri h: 21:55 coperto Coperto 21 21 100 1019 10 N 0
Ieri h: 21:35 coperto Coperto 21 21 100 1019 10 N 0
Ieri h: 20:55 molto_nuvoloso Molto Nuvoloso 21 21 100 1018 10 N 0
Ieri h: 20:15 coperto Coperto 22 21 94 1018 10 N 0
Ieri h: 19:55 coperto Coperto 22 21 94 1018 10 N 0
Ieri h: 19:35 coperto Coperto 22 21 94 1018 10 N 0
Ieri h: 19:15 coperto Coperto 22 21 94 1018 10 N 0
Ieri h: 18:55 coperto_pioggia Pioviggine Leggera 22 21 94 1018 10 N 0
Ieri h: 18:35 coperto_pioggia Pioggia Debole 22 21 94 1018 5 E 9.3
Ieri h: 18:15 coperto_pioggia Pioggia Debole 22 21 94 1018 2 E/SE 9.3
Ieri h: 17:55 coperto_pioggia Pioggia Debole 22 21 94 1018 2 N 5.5
Ieri h: 17:35 coperto_pioggia Pioggia Debole 23 22 94 1018 3 E/SE 9.3
Ieri h: 16:55 coperto_pioggia Pioviggine Leggera 24 23 94 1017 14 N 0
Ieri h: 16:35 coperto_pioggia Pioviggine Leggera 25 23 88 1017 14 N 0
Ieri h: 16:15 coperto_pioggia Pioviggine Leggera 24 23 94 1017 13 N 0
Ieri h: 15:55 coperto_pioggia Pioviggine Leggera 25 23 88 1017 14 NO 9.3
Ieri h: 15:35 coperto Coperto 25 23 88 1017 10 O 11.1
Ieri h: 15:15 molto_nuvoloso Molto Nuvoloso 25 23 88 1017 10 O/NO 11.1
Ieri h: 14:55 poco_nuvoloso Poco Nuvoloso 27 23 78 1017 10 N 0
Ieri h: 14:35 molto_nuvoloso Molto Nuvoloso 27 23 78 1017 13 N 5.5
Ieri h: 13:55 coperto Coperto 27 23 78 1017 10 E 7.4
Ieri h: 13:35 molto_nuvoloso Molto Nuvoloso 27 23 78 1017 10 E 11.1
Ieri h: 13:15 coperto Coperto 27 23 78 1017 10 E 9.3
Ieri h: 12:55 coperto Coperto 26 23 83 1017 10 E 11.1
Ieri h: 12:35 coperto Coperto 26 24 88 1018 10 E/NE 7.4